Time,TemperatureF,DewpointF,PressureIn,WindDirection,WindDirectionDegrees,WindSpeedMPH,WindSpeedGustMPH,Humidity,HourlyPrecipIn,Conditions,Clouds,dailyrainin,SoftwareType,DateUTC
2013-06-04 00:01:00,63.9,54.3,29.72,SE,135,6.8,-999.0,71,-99.99,,,0.00,Acu-Link.com,2013-06-04 05:01:00,
2013-06-04 00:16:00,63.3,54.5,29.72,SSE,157,4.7,-999.0,73,-99.99,,,0.00,Acu-Link.com,2013-06-04 05:16:00,
2013-06-04 00:32:00,63.0,54.2,29.71,East,90,5.3,-999.0,73,-99.99,,,0.00,Acu-Link.com,2013-06-04 05:32:00,
2013-06-04 00:47:00,62.8,54.0,29.69,East,90,6.3,-999.0,73,-99.99,,,0.00,Acu-Link.com,2013-06-04 05:47:00,
2013-06-04 01:02:00,62.4,54.0,29.69,East,90,6.3,-999.0,74,-99.99,,,0.00,Acu-Link.com,2013-06-04 06:02:00,
2013-06-04 01:17:00,62.2,53.8,29.68,ESE,112,10.9,-999.0,74,-99.99,,,0.00,Acu-Link.com,2013-06-04 06:17:00,
2013-06-04 01:32:00,62.2,54.2,29.68,ESE,112,8.3,-999.0,75,-99.99,,,0.00,Acu-Link.com,2013-06-04 06:32:00,
2013-06-04 01:47:00,62.1,54.1,29.67,East,90,7.3,-999.0,75,-99.99,,,0.00,Acu-Link.com,2013-06-04 06:47:00,
2013-06-04 02:02:00,61.9,54.2,29.68,ESE,112,8.9,-999.0,76,-99.99,,,0.00,Acu-Link.com,2013-06-04 07:02:00,
2013-06-04 02:18:00,61.7,54.4,29.67,ESE,112,8.3,-999.0,77,-99.99,,,0.00,Acu-Link.com,2013-06-04 07:18:00,
2013-06-04 02:33:00,61.7,54.4,29.69,ESE,112,5.8,-999.0,77,-99.99,,,0.00,Acu-Link.com,2013-06-04 07:33:00,
2013-06-04 02:48:00,61.3,54.4,29.69,ESE,112,3.7,-999.0,78,-99.99,,,0.00,Acu-Link.com,2013-06-04 07:48:00,
2013-06-04 03:04:00,61.3,54.4,29.71,ENE,67,2.7,-999.0,78,-99.99,,,0.00,Acu-Link.com,2013-06-04 08:04:00,
2013-06-04 03:20:00,61.3,54.7,29.71,East,90,4.2,-999.0,79,-99.99,,,0.00,Acu-Link.com,2013-06-04 08:20:00,
2013-06-04 03:35:00,61.5,54.9,29.71,East,90,5.3,-999.0,79,-99.99,,,0.00,Acu-Link.com,2013-06-04 08:35:00,
2013-06-04 03:50:00,61.7,54.8,29.70,ESE,112,6.3,-999.0,78,-99.99,,,0.00,Acu-Link.com,2013-06-04 08:50:00,
2013-06-04 04:05:00,61.2,54.6,29.69,ESE,112,7.3,-999.0,79,-99.99,,,0.00,Acu-Link.com,2013-06-04 09:05:00,
2013-06-04 04:21:00,60.8,54.6,29.69,East,90,4.7,-999.0,80,-99.99,,,0.00,Acu-Link.com,2013-06-04 09:21:00,
2013-06-04 04:36:00,60.3,54.8,29.69,East,90,5.8,-999.0,82,-99.99,,,0.00,Acu-Link.com,2013-06-04 09:36:00,
2013-06-04 05:06:00,60.3,54.8,29.68,East,90,5.3,-999.0,82,-99.99,,,0.00,Acu-Link.com,2013-06-04 10:06:00,
2013-06-04 05:21:00,59.9,55.1,29.70,ESE,112,3.2,-999.0,84,-99.99,,,0.00,Acu-Link.com,2013-06-04 10:21:00,
2013-06-04 05:37:00,59.7,55.5,29.70,ESE,112,4.2,-999.0,86,-99.99,,,0.00,Acu-Link.com,2013-06-04 10:37:00,
2013-06-04 05:52:00,59.5,55.6,29.68,ESE,112,7.3,-999.0,87,-99.99,,,0.00,Acu-Link.com,2013-06-04 10:52:00,
2013-06-04 06:07:00,59.5,55.3,29.68,ESE,112,8.3,-999.0,86,-99.99,,,0.00,Acu-Link.com,2013-06-04 11:07:00,
2013-06-04 06:22:00,59.5,55.3,29.69,SE,135,4.7,-999.0,86,-99.99,,,0.00,Acu-Link.com,2013-06-04 11:22:00,
2013-06-04 06:37:00,59.5,55.3,29.70,SSE,157,4.7,-999.0,86,-99.99,,,0.00,Acu-Link.com,2013-06-04 11:37:00,
2013-06-04 06:52:00,60.1,55.6,29.73,SW,225,1.7,-999.0,85,-99.99,,,0.00,Acu-Link.com,2013-06-04 11:52:00,
2013-06-04 07:07:00,60.4,55.9,29.74,ENE,67,1.1,-999.0,85,-99.99,,,0.00,Acu-Link.com,2013-06-04 12:07:00,
2013-06-04 07:23:00,60.8,56.3,29.75,East,90,3.7,-999.0,85,-99.99,,,0.00,Acu-Link.com,2013-06-04 12:23:00,
2013-06-04 07:38:00,60.8,56.6,29.73,East,90,4.2,-999.0,86,-99.99,,,0.00,Acu-Link.com,2013-06-04 12:38:00,
2013-06-04 07:53:00,61.9,57.0,29.73,ESE,112,5.8,-999.0,84,-99.99,,,0.00,Acu-Link.com,2013-06-04 12:53:00,
2013-06-04 08:08:00,62.4,56.8,29.72,SE,135,6.8,-999.0,82,-99.99,,,0.00,Acu-Link.com,2013-06-04 13:08:00,
2013-06-04 08:23:00,62.4,56.8,29.70,ESE,112,8.9,-999.0,82,-99.99,,,0.00,Acu-Link.com,2013-06-04 13:23:00,
2013-06-04 08:38:00,62.4,56.8,29.72,ESE,112,5.3,-999.0,82,-99.99,,,0.00,Acu-Link.com,2013-06-04 13:38:00,
2013-06-04 08:53:00,63.0,57.4,29.68,ESE,112,10.4,-999.0,82,-99.99,,,0.00,Acu-Link.com,2013-06-04 13:53:00,
2013-06-04 09:08:00,63.5,57.6,29.68,ESE,112,13.5,-999.0,81,-99.99,,,0.00,Acu-Link.com,2013-06-04 14:08:00,
2013-06-04 09:23:00,64.4,58.1,29.67,ESE,112,15.0,-999.0,80,-99.99,,,0.00,Acu-Link.com,2013-06-04 14:23:00,
2013-06-04 09:38:00,64.9,58.2,29.70,ESE,112,11.9,-999.0,79,-99.99,,,0.00,Acu-Link.com,2013-06-04 14:38:00,
2013-06-04 09:53:00,66.2,58.8,29.73,SE,135,8.3,-999.0,77,-99.99,,,0.00,Acu-Link.com,2013-06-04 14:53:00,
2013-06-04 10:09:00,66.6,59.2,29.73,ESE,112,8.3,-999.0,77,-99.99,,,0.00,Acu-Link.com,2013-06-04 15:09:00,
2013-06-04 10:24:00,67.5,59.7,29.72,SE,135,7.3,-999.0,76,-99.99,,,0.00,Acu-Link.com,2013-06-04 15:24:00,
2013-06-04 10:39:00,68.2,60.0,29.72,ESE,112,7.3,-999.0,75,-99.99,,,0.00,Acu-Link.com,2013-06-04 15:39:00,
2013-06-04 10:54:00,69.6,60.9,29.71,SSE,157,5.8,-999.0,74,-99.99,,,0.00,Acu-Link.com,2013-06-04 15:54:00,
2013-06-04 11:09:00,70.0,60.5,29.73,SSW,202,5.3,-999.0,72,-99.99,,,0.00,Acu-Link.com,2013-06-04 16:09:00,
2013-06-04 11:24:00,72.1,61.8,29.73,ESE,112,6.3,-999.0,70,-99.99,,,0.00,Acu-Link.com,2013-06-04 16:24:00,
2013-06-04 11:39:00,71.6,61.7,29.74,South,180,9.9,-999.0,71,-99.99,,,0.00,Acu-Link.com,2013-06-04 16:39:00,
2013-06-04 11:54:00,71.1,61.2,29.73,SE,135,4.7,-999.0,71,-99.99,,,0.00,Acu-Link.com,2013-06-04 16:54:00,
2013-06-04 12:10:00,72.7,61.9,29.74,South,180,6.3,-999.0,69,-99.99,,,0.00,Acu-Link.com,2013-06-04 17:10:00,
2013-06-04 12:25:00,72.0,62.1,29.74,SE,135,6.3,-999.0,71,-99.99,,,0.00,Acu-Link.com,2013-06-04 17:25:00,
2013-06-04 12:40:00,72.3,61.5,29.74,ESE,112,4.2,-999.0,69,-99.99,,,0.00,Acu-Link.com,2013-06-04 17:40:00,
2013-06-04 12:55:00,74.1,62.8,29.73,ESE,112,5.3,-999.0,68,-99.99,,,0.00,Acu-Link.com,2013-06-04 17:55:00,
2013-06-04 13:10:00,74.7,63.0,29.73,ESE,112,5.3,-999.0,67,-99.99,,,0.00,Acu-Link.com,2013-06-04 18:10:00,
2013-06-04 13:26:00,73.8,62.6,29.74,SSE,157,7.3,-999.0,68,-99.99,,,0.00,Acu-Link.com,2013-06-04 18:26:00,
2013-06-04 13:57:00,74.1,62.8,29.73,South,180,5.3,-999.0,68,-99.99,,,0.00,Acu-Link.com,2013-06-04 18:57:00,
2013-06-04 14:12:00,74.1,62.8,29.72,South,180,6.8,-999.0,68,-99.99,,,0.00,Acu-Link.com,2013-06-04 19:12:00,
2013-06-04 14:27:00,74.5,63.6,29.72,SSE,157,4.2,-999.0,69,-99.99,,,0.00,Acu-Link.com,2013-06-04 19:27:00,
2013-06-04 14:42:00,76.1,63.5,29.72,SSE,157,2.7,-999.0,65,-99.99,,,0.00,Acu-Link.com,2013-06-04 19:42:00,
2013-06-04 14:57:00,76.6,63.9,29.72,SSE,157,5.8,-999.0,65,-99.99,,,0.00,Acu-Link.com,2013-06-04 19:57:00,
2013-06-04 15:13:00,75.4,63.7,29.71,East,90,4.2,-999.0,67,-99.99,,,0.00,Acu-Link.com,2013-06-04 20:13:00,
2013-06-04 15:28:00,78.1,64.9,29.72,ESE,112,6.8,-999.0,64,-99.99,,,0.00,Acu-Link.com,2013-06-04 20:28:00,
2013-06-04 15:43:00,77.0,64.8,29.71,South,180,4.2,-999.0,66,-99.99,,,0.00,Acu-Link.com,2013-06-04 20:43:00,
2013-06-04 15:58:00,78.1,65.4,29.71,ESE,112,4.7,-999.0,65,-99.99,,,0.00,Acu-Link.com,2013-06-04 20:58:00,
2013-06-04 16:13:00,77.0,64.3,29.71,South,180,4.2,-999.0,65,-99.99,,,0.00,Acu-Link.com,2013-06-04 21:13:00,
2013-06-04 16:29:00,79.0,64.8,29.71,SSE,157,7.3,-999.0,62,-99.99,,,0.00,Acu-Link.com,2013-06-04 21:29:00,
2013-06-04 16:44:00,79.0,63.9,29.71,ESE,112,5.8,-999.0,60,-99.99,,,0.00,Acu-Link.com,2013-06-04 21:44:00,
2013-06-04 16:59:00,77.7,63.6,29.71,SSE,157,9.4,-999.0,62,-99.99,,,0.00,Acu-Link.com,2013-06-04 21:59:00,
2013-06-04 17:14:00,78.1,64.9,29.70,South,180,4.7,-999.0,64,-99.99,,,0.00,Acu-Link.com,2013-06-04 22:14:00,
2013-06-04 17:29:00,77.2,64.5,29.71,ESE,112,7.8,-999.0,65,-99.99,,,0.00,Acu-Link.com,2013-06-04 22:29:00,
2013-06-04 17:44:00,77.2,64.5,29.71,ESE,112,5.3,-999.0,65,-99.99,,,0.00,Acu-Link.com,2013-06-04 22:44:00,
2013-06-04 18:00:00,76.6,64.4,29.70,ESE,112,6.3,-999.0,66,-99.99,,,0.00,Acu-Link.com,2013-06-04 23:00:00,
2013-06-04 18:15:00,77.2,64.5,29.71,ESE,112,4.7,-999.0,65,-99.99,,,0.00,Acu-Link.com,2013-06-04 23:15:00,
2013-06-04 18:30:00,76.8,64.6,29.71,East,90,4.7,-999.0,66,-99.99,,,0.00,Acu-Link.com,2013-06-04 23:30:00,
2013-06-04 18:45:00,76.1,64.8,29.71,ESE,112,7.3,-999.0,68,-99.99,,,0.00,Acu-Link.com,2013-06-04 23:45:00,
2013-06-04 19:00:00,76.3,64.9,29.71,East,90,5.8,-999.0,68,-99.99,,,0.00,Acu-Link.com,2013-06-05 00:00:00,
2013-06-04 19:15:00,78.1,65.8,29.71,ESE,112,7.3,-999.0,66,-99.99,,,0.00,Acu-Link.com,2013-06-05 00:15:00,
2013-06-04 19:30:00,75.4,64.5,29.72,East,90,7.8,-999.0,69,-99.99,,,0.00,Acu-Link.com,2013-06-05 00:30:00,
2013-06-04 19:45:00,75.2,64.7,29.72,ESE,112,6.8,-999.0,70,-99.99,,,0.00,Acu-Link.com,2013-06-05 00:45:00,
2013-06-04 20:00:00,74.7,64.7,29.73,ESE,112,6.8,-999.0,71,-99.99,,,0.00,Acu-Link.com,2013-06-05 01:00:00,
2013-06-04 20:15:00,73.9,64.3,29.73,ENE,67,4.7,-999.0,72,-99.99,,,0.00,Acu-Link.com,2013-06-05 01:15:00,
2013-06-04 20:31:00,73.4,63.8,29.73,ESE,112,4.7,-999.0,72,-99.99,,,0.00,Acu-Link.com,2013-06-05 01:31:00,
2013-06-04 20:46:00,73.0,63.8,29.74,ESE,112,3.7,-999.0,73,-99.99,,,0.00,Acu-Link.com,2013-06-05 01:46:00,
2013-06-04 21:01:00,72.3,63.9,29.74,East,90,3.7,-999.0,75,-99.99,,,0.00,Acu-Link.com,2013-06-05 02:01:00,
2013-06-04 21:16:00,71.6,63.6,29.74,East,90,2.7,-999.0,76,-99.99,,,0.00,Acu-Link.com,2013-06-05 02:16:00,
2013-06-04 21:31:00,70.9,64.1,29.75,ENE,67,4.7,-999.0,79,-99.99,,,0.00,Acu-Link.com,2013-06-05 02:31:00,
2013-06-04 21:47:00,70.3,63.8,29.75,ENE,67,3.7,-999.0,80,-99.99,,,0.00,Acu-Link.com,2013-06-05 02:47:00,
2013-06-04 22:02:00,70.3,63.8,29.76,NE,45,3.7,-999.0,80,-99.99,,,0.00,Acu-Link.com,2013-06-05 03:02:00,
2013-06-04 22:17:00,70.3,63.8,29.77,NW,315,2.7,-999.0,80,-99.99,,,0.00,Acu-Link.com,2013-06-05 03:17:00,
2013-06-04 22:32:00,69.6,63.5,29.78,NNE,22,7.8,-999.0,81,-99.99,,,0.00,Acu-Link.com,2013-06-05 03:32:00,
2013-06-04 22:47:00,68.7,63.3,29.78,North,0,8.3,-999.0,83,-99.99,,,0.00,Acu-Link.com,2013-06-05 03:47:00,
2013-06-04 23:02:00,67.6,63.6,29.79,NNW,337,8.9,-999.0,87,-99.99,,,0.01,Acu-Link.com,2013-06-05 04:02:00,
2013-06-04 23:17:00,67.6,63.6,29.79,NNW,337,6.8,-999.0,87,-99.99,,,0.02,Acu-Link.com,2013-06-05 04:17:00,
2013-06-04 23:33:00,67.6,63.6,29.79,NNE,22,3.7,-999.0,87,-99.99,,,0.02,Acu-Link.com,2013-06-05 04:33:00,
2013-06-04 23:48:00,67.1,63.4,29.78,NE,45,2.2,-999.0,88,-99.99,,,0.02,Acu-Link.com,2013-06-05 04:48:00,